When you browse on this site, cookies collect data to enhance your experience and personalize the content and advertising you see.
Visit our Privacy Policy to learn more. By continuing to use the site, you agree to this use of cookies and data.
  • Em Portugal
  • Lista de países
  • Para 7 dias
  • Temperatura da água
  • Mapa do tempo
  • Widgets de tempo
  • user-avatar
    Iniciar Sessão

    Previsão horária em Saurimo

    Hoje, 23 Outubro, Quarta-feira

    Tempo Temperatura Precipitação Vento Pressão Humidade
    00:00 +21°C° 0.7 mm 1 m/s 668 mmHg 94%
    01:00 +21°C° 0 mm 1 m/s 668 mmHg 94%
    02:00 +21°C° 0 mm 1 m/s 668 mmHg 94%
    03:00 +19°C° 0 mm 0 m/s 668 mmHg 94%
    04:00 +19°C° 0 mm 0 m/s 668 mmHg 93%
    05:00 +19°C° 0 mm 0 m/s 668 mmHg 91%
    06:00 +20°C° 0 mm 0 m/s 669 mmHg 88%
    07:00 +22°C° 0 mm 0 m/s 670 mmHg 84%
    08:00 +24°C° 0 mm 0 m/s 670 mmHg 75%
    09:00 +28°C° 0 mm 1 m/s 670 mmHg 67%
    10:00 +30°C° 0 mm 1 m/s 670 mmHg 58%
    11:00 +31°C° 0 mm 1 m/s 669 mmHg 54%
    12:00 +32°C° 0 mm 1 m/s 669 mmHg 50%
    13:00 +33°C° 0 mm 1 m/s 669 mmHg 46%
    14:00 +32°C° 0 mm 1 m/s 668 mmHg 49%
    15:00 +31°C° 0 mm 1 m/s 668 mmHg 51%
    16:00 +31°C° 0 mm 2 m/s 667 mmHg 54%
    17:00 +28°C° 0.2 mm 2 m/s 667 mmHg 64%
    18:00 +26°C° 0.2 mm 2 m/s 667 mmHg 73%
    19:00 +24°C° 0.2 mm 2 m/s 667 mmHg 83%
    20:00 +23°C° 0.3 mm 1 m/s 668 mmHg 85%
    21:00 +22°C° 0.3 mm 1 m/s 668 mmHg 87%
    22:00 +22°C° 0.3 mm 1 m/s 669 mmHg 89%
    23:00 +22°C° 0.4 mm 1 m/s 668 mmHg 91%

    Amanhã, 24 Outubro, Quinta-feira

    Tempo Temperatura Precipitação Vento Pressão Humidade
    00:00 +21°C° 0.4 mm 1 m/s 668 mmHg 93%
    01:00 +21°C° 0.4 mm 1 m/s 668 mmHg 95%
    02:00 +21°C° 0.4 mm 1 m/s 668 mmHg 95%
    03:00 +20°C° 0.4 mm 1 m/s 668 mmHg 95%
    04:00 +18°C° 0.4 mm 0 m/s 668 mmHg 95%
    05:00 +19°C° 0 mm 0 m/s 669 mmHg 92%
    06:00 +21°C° 0 mm 0 m/s 669 mmHg 89%
    07:00 +22°C° 0 mm 0 m/s 670 mmHg 85%
    08:00 +25°C° 0 mm 0 m/s 671 mmHg 74%
    09:00 +28°C° 0 mm 0 m/s 671 mmHg 63%
    10:00 +33°C° 0 mm 1 m/s 671 mmHg 53%
    11:00 +33°C° 0 mm 1 m/s 671 mmHg 50%
    12:00 +33°C° 0 mm 1 m/s 670 mmHg 48%
    13:00 +34°C° 0 mm 2 m/s 669 mmHg 45%
    14:00 +32°C° 0 mm 2 m/s 668 mmHg 48%
    15:00 +32°C° 0 mm 1 m/s 668 mmHg 51%
    16:00 +31°C° 0 mm 1 m/s 667 mmHg 54%
    17:00 +29°C° 0.2 mm 1 m/s 667 mmHg 63%
    18:00 +26°C° 0.2 mm 2 m/s 668 mmHg 72%
    19:00 +24°C° 0.2 mm 2 m/s 668 mmHg 82%
    20:00 +23°C° 0.4 mm 2 m/s 669 mmHg 85%
    21:00 +23°C° 0.4 mm 1 m/s 669 mmHg 88%
    22:00 +22°C° 0.4 mm 1 m/s 669 mmHg 92%
    23:00 +22°C° 0.6 mm 1 m/s 669 mmHg 93%

    Depois de amanhã, 25 Outubro, Sexta-feira

    Tempo Temperatura Precipitação Vento Pressão Humidade
    00:00 +22°C° 0.6 mm 1 m/s 669 mmHg 94%
    01:00 +21°C° 0.6 mm 1 m/s 669 mmHg 96%
    02:00 +21°C° 0.5 mm 1 m/s 669 mmHg 96%
    03:00 +21°C° 0.5 mm 1 m/s 669 mmHg 97%
    04:00 +20°C° 0.5 mm 2 m/s 669 mmHg 97%
    05:00 +21°C° 0.1 mm 2 m/s 670 mmHg 95%
    06:00 +21°C° 0.1 mm 2 m/s 670 mmHg 92%
    07:00 +23°C° 0.1 mm 2 m/s 671 mmHg 89%
    08:00 +25°C° 0 mm 2 m/s 671 mmHg 79%
    09:00 +27°C° 0 mm 2 m/s 671 mmHg 69%
    10:00 +30°C° 0 mm 2 m/s 671 mmHg 59%
    11:00 +31°C° 0 mm 1 m/s 671 mmHg 54%
    12:00 +33°C° 0 mm 1 m/s 670 mmHg 49%
    13:00 +33°C° 0 mm 0 m/s 670 mmHg 44%
    14:00 +34°C° 0 mm 1 m/s 669 mmHg 47%
    15:00 +32°C° 0 mm 1 m/s 669 mmHg 51%
    16:00 +31°C° 0 mm 1 m/s 668 mmHg 55%
    17:00 +28°C° 9.3 mm 3 m/s 668 mmHg 68%
    18:00 +23°C° 9.3 mm 4 m/s 669 mmHg 82%
    19:00 +20°C° 9.3 mm 6 m/s 669 mmHg 96%
    20:00 +19°C° 2.3 mm 4 m/s 669 mmHg 95%
    21:00 +19°C° 2.3 mm 2 m/s 670 mmHg 94%
    22:00 +20°C° 2.3 mm 1 m/s 670 mmHg 93%
    23:00 +20°C° 0 mm 1 m/s 670 mmHg 92%

    26 Outubro, Sábado

    Tempo Temperatura Precipitação Vento Pressão Humidade
    00:00 +20°C° 0 mm 1 m/s 669 mmHg 91%
    01:00 +20°C° 0 mm 1 m/s 669 mmHg 90%
    02:00 +20°C° 0 mm 1 m/s 669 mmHg 91%
    03:00 +20°C° 0 mm 1 m/s 668 mmHg 91%
    04:00 +20°C° 0 mm 1 m/s 668 mmHg 92%
    05:00 +21°C° 0 mm 1 m/s 669 mmHg 89%
    06:00 +22°C° 0 mm 1 m/s 669 mmHg 87%
    07:00 +21°C° 0 mm 0 m/s 670 mmHg 85%
    08:00 +22°C° 0 mm 0 m/s 670 mmHg 79%
    09:00 +24°C° 0 mm 0 m/s 670 mmHg 73%
    10:00 +26°C° 0 mm 0 m/s 670 mmHg 67%
    11:00 +28°C° 0 mm 0 m/s 670 mmHg 60%
    12:00 +30°C° 0 mm 0 m/s 670 mmHg 54%
    13:00 +32°C° 0 mm 0 m/s 669 mmHg 47%
    14:00 +33°C° 0 mm 1 m/s 669 mmHg 51%
    15:00 +32°C° 0 mm 1 m/s 668 mmHg 54%
    16:00 +31°C° 0 mm 1 m/s 667 mmHg 58%
    17:00 +29°C° 0 mm 1 m/s 667 mmHg 62%
    18:00 +27°C° 0 mm 1 m/s 667 mmHg 67%
    19:00 +25°C° 0 mm 1 m/s 668 mmHg 71%
    20:00 +24°C° 0.8 mm 1 m/s 668 mmHg 78%
    21:00 +23°C° 0.8 mm 1 m/s 668 mmHg 84%
    22:00 +20°C° 0.8 mm 0 m/s 668 mmHg 91%
    23:00 +22°C° 0.9 mm 1 m/s 668 mmHg 92%

    27 Outubro, Domingo

    Tempo Temperatura Precipitação Vento Pressão Humidade
    00:00 +22°C° 0.9 mm 1 m/s 668 mmHg 94%
    01:00 +22°C° 0.9 mm 1 m/s 667 mmHg 96%
    02:00 +22°C° 0.1 mm 1 m/s 668 mmHg 95%
    03:00 +22°C° 0.1 mm 1 m/s 668 mmHg 95%
    04:00 +22°C° 0.1 mm 1 m/s 668 mmHg 94%
    05:00 +22°C° 0 mm 1 m/s 668 mmHg 92%
    06:00 +23°C° 0 mm 1 m/s 669 mmHg 90%
    07:00 +24°C° 0 mm 1 m/s 669 mmHg 87%
    08:00 +26°C° 0 mm 1 m/s 670 mmHg 78%
    09:00 +28°C° 0 mm 1 m/s 670 mmHg 69%
    10:00 +30°C° 0 mm 1 m/s 670 mmHg 59%
    11:00 +31°C° 0 mm 1 m/s 670 mmHg 56%
    12:00 +32°C° 0 mm 1 m/s 669 mmHg 53%
    13:00 +33°C° 0 mm 1 m/s 668 mmHg 50%
    14:00 +32°C° 0 mm 1 m/s 668 mmHg 53%
    15:00 +31°C° 0 mm 1 m/s 667 mmHg 57%
    16:00 +30°C° 0 mm 1 m/s 666 mmHg 61%
    17:00 +28°C° 0.7 mm 1 m/s 666 mmHg 70%
    18:00 +26°C° 0.7 mm 1 m/s 667 mmHg 78%
    19:00 +23°C° 0.7 mm 1 m/s 667 mmHg 87%
    20:00 +23°C° 0.9 mm 1 m/s 667 mmHg 89%
    21:00 +22°C° 0.9 mm 1 m/s 668 mmHg 92%
    22:00 +22°C° 0.9 mm 1 m/s 668 mmHg 95%
    23:00 +22°C° 0 mm 1 m/s 668 mmHg 95%

    28 Outubro, Segunda-feira

    Tempo Temperatura Precipitação Vento Pressão Humidade
    00:00 +21°C° 0 mm 1 m/s 668 mmHg 95%
    01:00 +21°C° 0 mm 1 m/s 667 mmHg 95%
    02:00 +21°C° 0 mm 1 m/s 667 mmHg 96%
    03:00 +21°C° 0 mm 1 m/s 667 mmHg 96%
    04:00 +21°C° 0 mm 1 m/s 667 mmHg 96%
    05:00 +22°C° 0 mm 1 m/s 667 mmHg 93%
    06:00 +22°C° 0 mm 1 m/s 668 mmHg 90%
    07:00 +23°C° 0 mm 1 m/s 669 mmHg 88%
    08:00 +25°C° 0 mm 1 m/s 669 mmHg 77%
    09:00 +27°C° 0 mm 1 m/s 669 mmHg 67%
    10:00 +30°C° 0 mm 1 m/s 670 mmHg 57%
    11:00 +31°C° 0 mm 1 m/s 669 mmHg 54%
    12:00 +31°C° 0 mm 1 m/s 668 mmHg 52%
    13:00 +32°C° 0 mm 1 m/s 668 mmHg 49%
    14:00 +32°C° 0 mm 1 m/s 667 mmHg 52%
    15:00 +31°C° 0 mm 1 m/s 667 mmHg 56%
    16:00 +30°C° 0 mm 2 m/s 666 mmHg 59%
    17:00 +28°C° 0 mm 2 m/s 666 mmHg 65%
    18:00 +26°C° 0 mm 2 m/s 667 mmHg 71%
    19:00 +24°C° 0 mm 2 m/s 667 mmHg 76%
    20:00 +23°C° 0.4 mm 2 m/s 667 mmHg 82%
    21:00 +23°C° 0.4 mm 2 m/s 668 mmHg 88%
    22:00 +21°C° 0.4 mm 2 m/s 668 mmHg 94%
    23:00 +21°C° 0.6 mm 1 m/s 668 mmHg 95%

    29 Outubro, Terça-feira

    Tempo Temperatura Precipitação Vento Pressão Humidade
    00:00 +21°C° 0.6 mm 1 m/s 668 mmHg 96%
    01:00 +21°C° 0.6 mm 1 m/s 667 mmHg 97%
    02:00 +21°C° 0.6 mm 1 m/s 667 mmHg 98%
    03:00 +20°C° 0.6 mm 1 m/s 667 mmHg 98%
    04:00 +20°C° 0.6 mm 1 m/s 668 mmHg 98%
    05:00 +21°C° 0 mm 1 m/s 668 mmHg 96%
    06:00 +21°C° 0 mm 2 m/s 669 mmHg 94%
    07:00 +21°C° 0 mm 2 m/s 669 mmHg 92%
    08:00 +24°C° 0 mm 3 m/s 669 mmHg 87%
    09:00 +25°C° 0 mm 3 m/s 669 mmHg 82%
    10:00 +26°C° 0 mm 3 m/s 669 mmHg 77%
    11:00 +27°C° 0 mm 2 m/s 669 mmHg 72%
    12:00 +29°C° 0 mm 2 m/s 668 mmHg 66%
    13:00 +30°C° 0 mm 2 m/s 668 mmHg 61%
    14:00 +30°C° 0.4 mm 2 m/s 667 mmHg 64%
    15:00 +29°C° 0.4 mm 2 m/s 667 mmHg 67%
    16:00 +29°C° 0.4 mm 2 m/s 666 mmHg 70%
    17:00 +27°C° 0.4 mm 1 m/s 667 mmHg 77%
    18:00 +25°C° 0.4 mm 1 m/s 667 mmHg 83%
    19:00 +23°C° 0.4 mm 1 m/s 667 mmHg 90%
    20:00 +23°C° 0.1 mm 1 m/s 668 mmHg 91%
    21:00 +22°C° 0.1 mm 1 m/s 668 mmHg 92%
    22:00 +22°C° 0.1 mm 1 m/s 669 mmHg 93%
    23:00 +22°C° 1 mm 1 m/s 669 mmHg 93%
    Mostrar mais